Simultaneous Nadir Overpasses (SNOs) Predictions

Prediction of SNOs between GOES-15 and TERRA Satellite Orbit:

Table of predicted SNOs for the next 14.0 days since TLE Epoch: 11/5/2011
Index Date Time (GOES-15) GOES-15 Lat,Lon TERRA Lat,Lon Distance(km) Time Diff (sec)
1 11/06/2011 17:27:05 -0.22,-105.54 -0.37,-104.81 83.52 80
2 11/07/2011 05:51:09 0.20,-105.78 -0.72,-110.00 480.14 80
3 11/09/2011 05:36:23 0.21,-107.39 0.28,-107.12 31.89 80
4 11/09/2011 18:00:20 -0.20,-108.00 0.71,-112.29 488.24 80
5 11/11/2011 17:45:33 -0.20,-109.60 -0.26,-109.40 22.75 80
6 11/14/2011 05:57:29 0.19,-111.43 0.11,-111.69 30.81 80
7 11/16/2011 05:42:41 0.19,-113.03 1.06,-108.80 480.89 80
8 11/16/2011 18:06:38 -0.17,-113.64 -0.09,-113.98 38.56 80
9 11/18/2011 17:51:50 -0.18,-115.23 -1.07,-111.08 472.18 80
10 11/19/2011 06:15:53 0.16,-115.45 0.01,-116.28 93.79 80




NCC Satellite Simultaneous Nadir Overpasses (SNOs) Prediction Service
